Lübeck Blankensee Airport

Jump to: basic info | weather | frequencies | runways | comments

Related pages: nearby airports | nearby navaids | notams | map

Basic information (top)

Codes: LBC EDHL
Location: lon 53.805401, lat 10.719200, elev 53 ft / 16 m msl
Status: medium_airport
Scheduled airline service: yes
Links: Wikipedia Mobile

Weather (top)

Current conditions (rec'd 2014/09/30 19:20Z):

EDHL 301920Z VRB02KT 2800 BR BKN025CB 16/16 Q1024 RERA RMK ATIS KIL

Airport forecast for Hamburg Airport 28nm (52km) WSW (rec'd 2014/09/30 18:27Z):

TAF EDDH 301700Z 3018/0124 VRB03KT 8000 BKN040 
      BECMG 3021/3024 4000 BR 
      BECMG 0100/0103 1200 BR BKN003 
      BECMG 0107/0109 3000 BR BKN007 
      BECMG 0109/0112 9999 SCT030

Frequencies (top)

Verify before use: may be inaccurate or out of date.

AFIS: 125.1 MHz (BREMEN INFO)
ATIS: 119.925 MHz (ATIS)
GND: 121.775 MHz (GND)
INFO: 128.7 MHz (INFO)
RDR: 124.225 MHz (BREMEN RADAR)
TWR: 128.7 MHz (TWR)

Runways (top)

07/25: 6,896 x 197 ft (2,102 x 60 m) — paved — lighted — threshold 07 displaced 984 ft (300 m)

Latest comments (top)

No comments yet for Lübeck Blankensee Airport

More... (top)

See also NOTAMs and nearby airports and navaids, or visit the Lübeck Blankensee Airport page at the main OurAirports website..